[Date Prev][Date Next][Thread Prev][Thread Next] - [Date Index][Thread Index][Author Index]
2 Line ISS Keps 11-1
- Subject: [sarex] 2 Line ISS Keps 11-1
- From: "Dave Larsen Ph.D." <doc@xxxxxxxxxxx>
- Date: Fri, 1 Nov 2002 05:54:14 -0800
ISS
1 25544U 98067A 02305.19225694 .00037793 00000-0 50213-3 0 3243
2 25544 51.6364 85.0350 0014852 92.4714 277.1474 15.57702213225346
----
Via the sarex mailing list at AMSAT.ORG courtesy of AMSAT-NA.
To unsubscribe, send "unsubscribe sarex" to Majordomo@amsat.org
AMSAT Home